Weather History for KPHN - June, 2014

Change the Weather History Date:

Friday, June 6, 2014

  Actual Average (KMTC) Record (KMTC)
Temperature  
Mean Temperature 58 °F -  
Max Temperature 77 °F 75 °F 95 °F (1999)
Min Temperature 39 °F 54 °F 40 °F (1948)
Degree Days  
Heating Degree Days 7    
Growing Degree Days 8 (Base 50)    
Moisture  
Dew Point 46 °F    
Average Humidity 69    
Maximum Humidity 100    
Minimum Humidity 32    
Precipitation  
Precipitation 0.00 in - - ()
Sea Level Pressure  
Sea Level Pressure 30.00 in    
Wind  
Wind Speed 1 mph (SW)    
Max Wind Speed 8 mph    
Max Gust Speed -    
Visibility 9 miles    
Events      
Averages and records for this station are not official NWS values.
T = Trace of Precipitation, MM = Missing Value Source: NWS Daily Summary

Daily Weather History Graph

Daily Weather History Graph

Search for Another Location

Airport or City:

Trip Planner

Search our weather history database for the weather conditions in past years. The results will help you decide how hot, cold, wet, or windy it might be!

Date:

Astronomy

Jun. 06, 2014 Rise Set
Actual Time 5:52 AM EDT 9:05 PM EDT
Civil Twilight 5:17 AM EDT 9:40 PM EDT
Nautical Twilight 4:32 AM EDT 10:25 PM EDT
Astronomical Twilight 3:38 AM EDT 11:20 PM EDT
Moon 2:14 PM EDT (6/6) 1:53 AM EDT (6/6)
Length of Visible Light 16h 23m
Length of Day
15h 13m
First Quarter, 58% of the Moon is Illuminated
Jun 6
First Quarter
Jun 13
Full
Jun 19
Last Quarter
Jun 27
New
Jul 5
First Quarter

Hourly Weather History & Observations

Time (EDT) Temp. Dew Point Humidity Pressure Visibility Wind Dir Wind Speed Gust Speed Precip Events Conditions
12:17 AM 44.6 °F 44.6 °F 100% 29.98 in 10.0 mi Calm Calm - N/A   Clear
12:37 AM 44.6 °F 42.8 °F 93% 29.98 in 10.0 mi Calm Calm - N/A   Clear
12:57 AM 44.6 °F 42.8 °F 93% 29.97 in 10.0 mi Calm Calm - N/A   Clear
1:17 AM 44.6 °F 42.8 °F 93% 29.97 in 10.0 mi Calm Calm - N/A   Clear
1:37 AM 42.8 °F 42.8 °F 100% 29.97 in 10.0 mi Calm Calm - N/A   Clear
1:57 AM 42.8 °F 42.8 °F 100% 29.97 in 10.0 mi Calm Calm - N/A   Clear
2:17 AM 42.8 °F 42.8 °F 100% 29.97 in 10.0 mi Calm Calm - N/A   Clear
2:37 AM 42.8 °F 42.8 °F 100% 29.98 in 10.0 mi Calm Calm - N/A   Clear
2:57 AM 42.8 °F 41.0 °F 93% 29.98 in 10.0 mi Calm Calm - N/A   Clear
3:17 AM 42.8 °F 41.0 °F 93% 29.98 in 7.0 mi Calm Calm - N/A   Clear
3:37 AM 42.8 °F 41.0 °F 93% 29.98 in 4.0 mi Calm Calm - N/A   Clear
3:57 AM 41.0 °F 41.0 °F 100% 29.98 in 7.0 mi Calm Calm - N/A   Clear
4:17 AM 41.0 °F 41.0 °F 100% 29.98 in 7.0 mi Calm Calm - N/A   Clear
4:37 AM 41.0 °F 41.0 °F 100% 29.99 in 7.0 mi Calm Calm - N/A   Clear
4:57 AM 41.0 °F 41.0 °F 100% 29.99 in 4.0 mi Calm Calm - N/A   Clear
5:17 AM 41.0 °F 41.0 °F 100% 29.99 in 7.0 mi Calm Calm - N/A   Clear
5:37 AM 41.0 °F 41.0 °F 100% 29.99 in 3.0 mi Calm Calm - N/A   Clear
5:57 AM 39.2 °F 39.2 °F 100% 30.00 in 3.0 mi Calm Calm - N/A   Scattered Clouds
6:17 AM 39.2 °F 39.2 °F 100% 30.01 in 5.0 mi Calm Calm - N/A   Clear
6:37 AM 41.0 °F 41.0 °F 100% 30.02 in 10.0 mi Calm Calm - N/A   Clear
6:57 AM 42.8 °F 42.8 °F 100% 30.02 in 10.0 mi Calm Calm - N/A   Clear
7:17 AM 44.6 °F 44.6 °F 100% 30.03 in 10.0 mi Calm Calm - N/A   Clear
7:37 AM 48.2 °F 48.2 °F 100% 30.03 in 10.0 mi Calm Calm - N/A   Clear
7:57 AM 51.8 °F 50.0 °F 94% 30.03 in 10.0 mi Calm Calm - N/A   Clear
8:17 AM 53.6 °F 50.0 °F 88% 30.04 in 10.0 mi Calm Calm - N/A   Clear
8:37 AM 57.2 °F 50.0 °F 77% 30.04 in 10.0 mi South 3.5 mph - N/A   Clear
8:57 AM 59.0 °F 50.0 °F 72% 30.04 in 10.0 mi South 3.5 mph - N/A   Clear
9:17 AM 60.8 °F 50.0 °F 68% 30.04 in 10.0 mi SSW 6.9 mph - N/A   Clear
9:37 AM 62.6 °F 50.0 °F 63% 30.04 in 10.0 mi SSW 4.6 mph - N/A   Clear
9:57 AM 64.4 °F 50.0 °F 59% 30.03 in 10.0 mi SSE 4.6 mph - N/A   Clear
10:17 AM 66.2 °F 50.0 °F 56% 30.02 in 10.0 mi South 4.6 mph - N/A   Clear
10:37 AM 66.2 °F 50.0 °F 56% 30.02 in 10.0 mi South 5.8 mph - N/A   Clear
10:57 AM 68.0 °F 50.0 °F 52% 30.02 in 10.0 mi South 3.5 mph - N/A   Clear
11:37 AM 69.8 °F 48.2 °F 46% 30.02 in 10.0 mi Calm Calm - N/A   Clear
11:57 AM 69.8 °F 48.2 °F 46% 30.02 in 10.0 mi SSW 3.5 mph - N/A   Clear
12:17 PM 71.6 °F 48.2 °F 43% 30.02 in 10.0 mi Calm Calm - N/A   Clear
12:37 PM 71.6 °F 46.4 °F 41% 30.02 in 10.0 mi SE 4.6 mph - N/A   Clear
12:57 PM 71.6 °F 48.2 °F 43% 30.01 in 10.0 mi Calm Calm - N/A   Clear
1:17 PM 73.4 °F 48.2 °F 41% 30.01 in 10.0 mi SE 3.5 mph - N/A   Clear
1:37 PM 71.6 °F 48.2 °F 43% 30.00 in 10.0 mi SSW 3.5 mph - N/A   Clear
1:57 PM 73.4 °F 48.2 °F 41% 30.00 in 10.0 mi NNW 4.6 mph - N/A   Clear
2:17 PM 73.4 °F 48.2 °F 41% 30.00 in 10.0 mi West 4.6 mph - N/A   Clear
2:37 PM 73.4 °F 48.2 °F 41% 30.00 in 10.0 mi South 3.5 mph - N/A   Clear
2:57 PM 75.2 °F 50.0 °F 41% 30.00 in 10.0 mi Calm Calm - N/A   Clear
3:17 PM 75.2 °F 50.0 °F 41% 30.00 in 10.0 mi WSW 4.6 mph - N/A   Clear
3:37 PM 75.2 °F 48.2 °F 38% 29.99 in 10.0 mi Calm Calm - N/A   Scattered Clouds
3:57 PM 75.2 °F 50.0 °F 41% 29.99 in 10.0 mi Calm Calm - N/A   Clear
4:17 PM 75.2 °F 48.2 °F 38% 29.99 in 10.0 mi NW 3.5 mph - N/A   Clear
4:37 PM 75.2 °F 50.0 °F 41% 29.99 in 10.0 mi Calm Calm - N/A   Clear
4:57 PM 75.2 °F 50.0 °F 41% 29.98 in 10.0 mi Calm Calm - N/A   Scattered Clouds
5:17 PM 75.2 °F 50.0 °F 41% 29.97 in 10.0 mi SSW 3.5 mph - N/A   Scattered Clouds
5:37 PM 75.2 °F 50.0 °F 41% 29.97 in 10.0 mi WNW 4.6 mph - N/A   Scattered Clouds
5:57 PM 77.0 °F 48.2 °F 36% 29.97 in 10.0 mi WNW 6.9 mph - N/A   Clear
6:17 PM 77.0 °F 44.6 °F 32% 29.97 in 10.0 mi WNW 5.8 mph - N/A   Clear
6:37 PM 75.2 °F 44.6 °F 34% 29.97 in 10.0 mi WNW 4.6 mph - N/A   Clear
6:57 PM 73.4 °F 48.2 °F 41% 29.98 in 10.0 mi NE 8.1 mph - N/A   Clear
7:17 PM 71.6 °F 46.4 °F 41% 29.98 in 10.0 mi NNE 4.6 mph - N/A   Clear
7:37 PM 69.8 °F 46.4 °F 43% 29.99 in 10.0 mi North 4.6 mph - N/A   Clear
7:57 PM 69.8 °F 44.6 °F 40% 29.99 in 10.0 mi Calm Calm - N/A   Clear
8:17 PM 66.2 °F 46.4 °F 49% 30.00 in 10.0 mi Calm Calm - N/A   Clear
8:37 PM 64.4 °F 50.0 °F 59% 30.01 in 10.0 mi Calm Calm - N/A   Clear
8:57 PM 62.6 °F 48.2 °F 59% 30.01 in 10.0 mi Calm Calm - N/A   Clear
9:17 PM 57.2 °F 50.0 °F 77% 30.02 in 10.0 mi Calm Calm - N/A   Clear
9:37 PM 59.0 °F 48.2 °F 67% 30.02 in 10.0 mi Calm Calm - N/A   Clear
9:57 PM 55.4 °F 48.2 °F 77% 30.03 in 10.0 mi Calm Calm - N/A   Clear
10:17 PM 55.4 °F 50.0 °F 82% 30.03 in 10.0 mi Calm Calm - N/A   Clear
10:37 PM 53.6 °F 48.2 °F 82% 30.03 in 10.0 mi Calm Calm - N/A   Clear
10:57 PM 53.6 °F 50.0 °F 88% 30.02 in 10.0 mi Calm Calm - N/A   Clear
11:17 PM 51.8 °F 48.2 °F 88% 30.03 in 10.0 mi Calm Calm - N/A   Clear
11:37 PM 51.8 °F 48.2 °F 88% 30.02 in 10.0 mi Calm Calm - N/A   Clear
11:57 PM 50.0 °F 46.4 °F 87% 30.03 in 10.0 mi Calm Calm - N/A   Clear